TimeCDT,TemperatureF,Dew PointF,Humidity,Sea Level PressureIn,VisibilityMPH,Wind Direction,Wind SpeedMPH,Gust SpeedMPH,PrecipitationIn,Events,Conditions,WindDirDegrees,DateUTC
12:15 AM,63.7,62.2,95,29.97,5.0,Calm,Calm,-,N/A,,Scattered Clouds,0,2013-10-12 05:15:00
12:35 AM,63.5,62.1,95,29.97,5.0,Calm,Calm,-,N/A,,Scattered Clouds,0,2013-10-12 05:35:00
12:55 AM,63.5,62.1,95,29.97,7.0,Calm,Calm,-,N/A,,Mostly Cloudy,0,2013-10-12 05:55:00
1:15 AM,63.1,61.7,95,29.98,10.0,Calm,Calm,-,N/A,,Overcast,0,2013-10-12 06:15:00
1:35 AM,63.5,62.1,95,29.98,5.0,Calm,Calm,-,N/A,,Overcast,0,2013-10-12 06:35:00
1:55 AM,64.8,63.5,96,29.98,3.0,Calm,Calm,-,N/A,,Overcast,0,2013-10-12 06:55:00
2:15 AM,64.9,63.7,96,29.98,0.5,Calm,Calm,-,N/A,Fog,Fog,0,2013-10-12 07:15:00
2:35 AM,65.5,64.0,95,29.98,0.5,Calm,Calm,-,N/A,Fog,Fog,0,2013-10-12 07:35:00
2:55 AM,65.8,64.8,96,29.97,0.8,Calm,Calm,-,N/A,,Overcast,0,2013-10-12 07:55:00
3:15 AM,67.1,66.2,97,29.97,1.0,Calm,Calm,-,N/A,,Overcast,0,2013-10-12 08:15:00
3:35 AM,67.6,66.6,96,29.97,0.2,Calm,Calm,-,N/A,Fog,Fog,0,2013-10-12 08:35:00
3:55 AM,68.0,67.1,97,29.97,0.5,Calm,Calm,-,N/A,Fog,Fog,0,2013-10-12 08:55:00
4:15 AM,68.5,67.5,96,29.98,0.2,Calm,Calm,-,N/A,Fog,Fog,0,2013-10-12 09:15:00
4:35 AM,70.0,68.9,96,29.98,0.2,Calm,Calm,-,N/A,Fog,Fog,0,2013-10-12 09:35:00
4:55 AM,70.0,68.9,96,29.98,0.5,Calm,Calm,-,N/A,Fog,Fog,0,2013-10-12 09:55:00
5:15 AM,70.0,68.9,96,29.99,0.2,Calm,Calm,-,N/A,Fog,Fog,0,2013-10-12 10:15:00
5:35 AM,69.8,68.9,97,30.00,0.2,Calm,Calm,-,N/A,Fog,Fog,0,2013-10-12 10:35:00
5:55 AM,69.8,68.5,96,30.01,0.5,Calm,Calm,-,N/A,Fog,Fog,0,2013-10-12 10:55:00
6:15 AM,69.8,68.5,96,30.01,0.2,Calm,Calm,-,N/A,Fog,Fog,0,2013-10-12 11:15:00
6:35 AM,69.8,68.5,96,30.02,0.2,Calm,Calm,-,N/A,Fog,Fog,0,2013-10-12 11:35:00
6:55 AM,69.8,68.5,96,30.02,0.2,Calm,Calm,-,N/A,Fog,Fog,0,2013-10-12 11:55:00
7:15 AM,69.8,68.5,96,30.03,0.2,Calm,Calm,-,N/A,Fog,Fog,0,2013-10-12 12:15:00
7:35 AM,69.8,68.7,96,30.03,0.2,Calm,Calm,-,N/A,Fog,Fog,0,2013-10-12 12:35:00
7:55 AM,70.0,68.9,96,30.04,0.2,Calm,Calm,-,N/A,Fog,Fog,0,2013-10-12 12:55:00
8:15 AM,70.0,69.1,97,30.05,0.2,Calm,Calm,-,N/A,Fog,Fog,0,2013-10-12 13:15:00
8:35 AM,70.2,69.3,97,30.05,0.2,Calm,Calm,-,N/A,Fog,Fog,0,2013-10-12 13:35:00
8:55 AM,70.7,69.8,97,30.05,0.5,Calm,Calm,-,N/A,Fog,Fog,0,2013-10-12 13:55:00
9:15 AM,71.4,70.5,97,30.05,0.8,Calm,Calm,-,N/A,,Overcast,0,2013-10-12 14:15:00
9:35 AM,72.3,71.2,96,30.06,2.0,Calm,Calm,-,N/A,,Overcast,0,2013-10-12 14:35:00
9:55 AM,73.0,71.8,96,30.06,7.0,Calm,Calm,-,N/A,,Overcast,0,2013-10-12 14:55:00
10:15 AM,74.3,72.5,94,30.06,10.0,Calm,Calm,-,N/A,,Overcast,0,2013-10-12 15:15:00
10:35 AM,74.7,72.1,92,30.06,10.0,Calm,Calm,-,N/A,,Overcast,0,2013-10-12 15:35:00
10:55 AM,77.0,73.0,88,30.07,10.0,South,3.5,-,N/A,,Overcast,190,2013-10-12 15:55:00
11:15 AM,77.0,73.2,88,30.07,10.0,Calm,Calm,-,N/A,,Overcast,0,2013-10-12 16:15:00
11:35 AM,78.6,72.7,82,30.07,10.0,Calm,Calm,-,N/A,,Overcast,0,2013-10-12 16:35:00
11:55 AM,78.8,72.7,81,30.06,10.0,Calm,Calm,-,N/A,,Mostly Cloudy,0,2013-10-12 16:55:00
12:15 PM,79.0,72.5,80,30.06,10.0,Calm,Calm,-,N/A,,Overcast,0,2013-10-12 17:15:00
12:35 PM,80.1,72.9,79,30.04,10.0,South,4.6,-,N/A,,Overcast,170,2013-10-12 17:35:00
12:55 PM,82.0,72.9,74,30.03,10.0,SSE,3.5,-,N/A,,Mostly Cloudy,160,2013-10-12 17:55:00
1:15 PM,83.5,73.0,71,30.02,10.0,SE,4.6,-,N/A,,Mostly Cloudy,130,2013-10-12 18:15:00
1:35 PM,85.1,73.4,68,30.01,10.0,SW,5.8,-,N/A,,Mostly Cloudy,230,2013-10-12 18:35:00
1:55 PM,85.8,72.1,63,30.00,10.0,SSE,3.5,-,N/A,,Scattered Clouds,160,2013-10-12 18:55:00
2:15 PM,85.3,71.6,63,29.98,10.0,Calm,Calm,-,N/A,,Scattered Clouds,0,2013-10-12 19:15:00
2:35 PM,86.4,71.2,61,29.98,10.0,South,3.5,-,N/A,,Scattered Clouds,190,2013-10-12 19:35:00
2:55 PM,86.2,71.2,61,29.97,10.0,ESE,5.8,-,N/A,,Scattered Clouds,120,2013-10-12 19:55:00
3:15 PM,86.9,71.8,61,29.96,10.0,SSW,4.6,-,N/A,,Scattered Clouds,200,2013-10-12 20:15:00
3:35 PM,86.0,71.8,62,29.95,10.0,South,3.5,-,N/A,,Scattered Clouds,180,2013-10-12 20:35:00
3:55 PM,86.2,71.8,62,29.96,10.0,Calm,Calm,-,N/A,,Scattered Clouds,0,2013-10-12 20:55:00
4:15 PM,84.2,72.7,68,29.96,10.0,SE,3.5,-,N/A,,Mostly Cloudy,140,2013-10-12 21:15:00
4:35 PM,83.5,74.7,75,29.96,10.0,Calm,Calm,-,N/A,,Mostly Cloudy,0,2013-10-12 21:35:00
4:55 PM,77.7,71.1,80,29.97,7.0,SE,11.5,18.4,N/A,Rain-Thunderstorm,Heavy Thunderstorms and Rain,140,2013-10-12 21:55:00
5:15 PM,74.3,69.8,86,29.97,10.0,ESE,5.8,-,N/A,,Overcast,110,2013-10-12 22:15:00
5:35 PM,74.7,71.4,90,29.98,10.0,Calm,Calm,-,N/A,,Scattered Clouds,0,2013-10-12 22:35:00
5:55 PM,74.3,71.6,91,29.99,10.0,Calm,Calm,-,N/A,,Scattered Clouds,0,2013-10-12 22:55:00
6:15 PM,73.2,70.3,91,30.00,10.0,NE,3.5,-,N/A,,Mostly Cloudy,50,2013-10-12 23:15:00
6:35 PM,72.5,68.9,88,30.01,10.0,East,4.6,-,N/A,Thunderstorm,Overcast,90,2013-10-12 23:35:00
6:55 PM,72.7,70.2,92,30.03,10.0,East,4.6,-,N/A,Thunderstorm,Thunderstorm,80,2013-10-12 23:55:00
7:15 PM,72.3,68.2,87,30.05,10.0,NE,12.7,18.4,N/A,,Overcast,50,2013-10-13 00:15:00
7:35 PM,69.8,67.5,92,30.07,4.0,NE,9.2,19.6,N/A,Rain-Thunderstorm,Thunderstorms and Rain,40,2013-10-13 00:35:00
7:55 PM,69.3,67.3,93,30.12,2.5,NNW,3.5,-,N/A,Rain-Thunderstorm,Heavy Thunderstorms and Rain,330,2013-10-13 00:55:00
8:15 PM,68.9,67.3,95,30.10,2.0,East,8.1,-,N/A,Rain-Thunderstorm,Heavy Thunderstorms and Rain,80,2013-10-13 01:15:00
8:35 PM,68.9,67.3,95,30.11,5.0,NNE,3.5,-,0.02,Rain-Thunderstorm,Rain,20,2013-10-13 01:35:00
8:55 PM,69.1,67.3,94,30.13,7.0,NNW,5.8,-,0.06,Rain,Rain,340,2013-10-13 01:55:00
9:15 PM,69.1,67.1,93,30.13,7.0,East,4.6,-,0.03,Rain-Thunderstorm,Light Thunderstorms and Rain,90,2013-10-13 02:15:00
9:35 PM,69.1,67.1,93,30.12,5.0,East,3.5,-,0.06,Rain,Rain,90,2013-10-13 02:35:00
9:55 PM,68.9,67.1,94,30.11,10.0,East,3.5,-,0.11,Rain,Light Rain,90,2013-10-13 02:55:00
10:15 PM,68.9,67.1,94,30.11,10.0,Calm,Calm,-,0.04,Rain,Light Rain,0,2013-10-13 03:15:00
10:35 PM,68.4,67.1,96,30.11,10.0,Calm,Calm,-,0.09,,Mostly Cloudy,0,2013-10-13 03:35:00
10:55 PM,68.5,67.3,96,30.11,10.0,Calm,Calm,-,0.14,Rain,Light Rain,0,2013-10-13 03:55:00
11:15 PM,68.4,67.1,96,30.10,10.0,Calm,Calm,-,0.05,Rain,Light Rain,0,2013-10-13 04:15:00
11:35 PM,68.4,66.9,95,30.10,10.0,Calm,Calm,-,0.11,,Light Drizzle,0,2013-10-13 04:35:00
11:55 PM,68.5,67.3,96,30.10,10.0,Calm,Calm,-,0.16,,Clear,0,2013-10-13 04:55:00